Regional Weather Roundup
Issued by NWS

Home | Current Version | Previous Version | Text Only | Print | Product List | Glossary Off
Versions: 1 2 3 4 5 6 7 8 9 10 11 12 13 14 15 16 17 18 19 20 21 22 23 24 25 26 27 28 29 30 31 32 33 34 35 36 37 38 39 40 41 42 43 44 45 46 47 48 49 50

000
ASUS45 KABQ 210001
RWRNM
NEW MEXICO REGIONAL WEATHER ROUNDUP
NATIONAL WEATHER SERVICE ALBUQUERQUE NM
500 PM MST FRI JAN 20 2017

NOTE: "FAIR" MEANS FEW OR NO CLOUDS BELOW 12,000 FEET AGL WITH NO
       SIGNIFICANT WEATHER OR OBSTRUCTIONS TO VISION.

      THIS PRODUCT IS RELEASED AS TWO VERSIONS.  ONE VERSION NEAR
      THE TOP OF THE HOUR CONTAINING PRELIMINARY DATA FROM ALBUQUERQUE
      AND OTHER STATIONS.  A FINAL VERSION WITH ADDITIONAL DATA IS
      ISSUED ABOUT 10 MINUTES AFTER THE HOUR.

NMZ501-503-504-510>518-210100-
NORTHWEST PLATEAU/NORTHCENTRAL MOUNTAINS

CITY           SKY/WX    TMP DP  RH WIND       PRES   REMARKS
FARMINGTON     CLOUDY    35  28  75 S8        29.59S WCI  29
6HR MIN TEMP:  35; 6HR MAX TEMP:  40; 6HR PCP: TRACE;

LOS ALAMOS     CLOUDY    35  21  57 S5        29.62S WCI  31
SANTA FE       CLOUDY    36  25  64 W13       29.62S WCI  27
6HR MIN TEMP:  36; 6HR MAX TEMP:  44; 6HR PCP: TRACE;

TAOS           CLOUDY    34  12  40 W12       29.60R WCI  25
ANGEL FIRE     FLURRIES  25  17  72 SW8       29.59R WCI  17

$$
NMZ402-403-502-505>509-210100-
WESTCENTRAL MOUNTAINS/SOUTHWEST MOUNTAINS

CITY           SKY/WX    TMP DP  RH WIND       PRES   REMARKS
GALLUP         LGT SNOW  33  30  88 SW20G31   29.61S VSB 1   WCI  21
6HR MIN TEMP:  32; 6HR MAX TEMP:  34; 6HR PCP:  0.02;

GRANTS         CLOUDY    37  30  74 NW3       29.63S
SILVER CITY    CLOUDY    46  31  57 SW10G18   29.72R

$$
NMZ407-409-411-412-210100-
SOUTHERN DESERTS

CITY           SKY/WX    TMP DP  RH WIND       PRES   REMARKS
DEMING         MOCLDY    50  33  52 W15G30    29.72S
6HR MIN TEMP:  50; 6HR MAX TEMP:  54;

LAS CRUCES     MOCLDY    52  30  43 W16       29.70F
ALAMOGORDO     FAIR      50  32  50 SE9       29.72S
T OR C         MOCLDY    49  29  46 S10       29.63F
6HR MIN TEMP:  49; 6HR MAX TEMP:  53;


$$
NMZ519>523-210100-
CENTRAL VALLEYS/CENTRAL HIGHLANDS

CITY           SKY/WX    TMP DP  RH WIND       PRES   REMARKS
ALBUQUERQUE    LGT RAIN  38  33  82 S12G20    29.66R WCI  30
6HR MIN TEMP:  38; 6HR MAX TEMP:  43; 6HR PCP:  0.01;

DOUBLE EAGLE   LGT SNOW  34  30  86 CALM      29.66R VSB 1
MORIARTY ARPT  CLOUDY    37  28  72 SW3       29.66R
6HR MIN TEMP:  35; 6HR MAX TEMP:  41;

CLINES CORNERS MOCLDY    31  25  78 W18       29.63R WCI  19
6HR MIN TEMP:  30; 6HR MAX TEMP:  35;

BELEN          CLOUDY    40  35  81 S3        29.65S
6HR MIN TEMP:  40; 6HR MAX TEMP:  46;

SOCORRO        CLOUDY    46  34  64 CALM      29.63S
6HR MIN TEMP:  42; 6HR MAX TEMP:  49;


$$
NMZ524>526-539-540-210100-
SOUTHCENTRAL MOUNTAINS

CITY           SKY/WX    TMP DP  RH WIND       PRES   REMARKS
RUIDOSO        NOT AVBL

$$
NMZ527>531-210100-
NORTHEAST HIGHLANDS/NORTHEAST PLAINS

CITY           SKY/WX    TMP DP  RH WIND       PRES   REMARKS
LAS VEGAS      FAIR      34  19  54 W9        29.58R WCI  27
6HR MIN TEMP:  34; 6HR MAX TEMP:  38;

RATON          FAIR      37  15  40 SW16G25   29.50R WCI  28
6HR MIN TEMP:  37; 6HR MAX TEMP:  47;

CLAYTON        FAIR      47  26  44 W18G29    29.47R
6HR MIN TEMP:  47; 6HR MAX TEMP:  54;


$$
NMZ532>537-210100-
EASTCENTRAL PLAINS

CITY           SKY/WX    TMP DP  RH WIND       PRES   REMARKS
TUCUMCARI      FAIR      51  19  28 W30G37    29.53R
6HR MIN TEMP:  51; 6HR MAX TEMP:  57;

CANNON AFB     FAIR      49  28  45 W16       29.61S
6HR MIN TEMP:  47; 6HR MAX TEMP:  55; 6HR PCP: TRACE;

CLOVIS AIRPORT FAIR      48  27  43 W18G24    29.60S

$$
NMZ028-029-538-210100-
SOUTHEAST PLAINS

CITY           SKY/WX    TMP DP  RH WIND       PRES   REMARKS
ROSWELL        FAIR      58  27  30 W14       29.61F
6HR MIN TEMP:  58; 6HR MAX TEMP:  63;

ARTESIA        FAIR      57  30  35 SW21      29.65R
CARLSBAD       FAIR      59  28  30 W20       29.66S
6HR MIN TEMP:  59; 6HR MAX TEMP:  63;

HOBBS          CLEAR     54  27  35 SW16G22   29.66S


$$



USA.gov is the U.S. government's official web portal to all federal, state and local government web resources and services.